Location: Arborea
(39.7744°N, 8.5819°E)
Time: 19:15:03
(UTC+00:00)

CZ-2C DEB - Pass Details

Date: 21 August 2022
Orbit: 681 x 927 km, 97.9° (Epoch: 03 October)

Event Time Altitude Azimuth Distance (km) Brightness Sun altitude
Rises 21:48:31 0° 5° (N) 3,279 ? -33.3°
Reaches altitude 10° 21:50:50 10° 360° (N) 2,384 ? -33.6°
Enters shadow 21:55:04 44° 314° (NW) 1,149 ? -33.9°
